Fremont, MI

2:33 AM EDT on March 24, 2017 (GMT -0400)
Fremont

Weather History for KFFX - December, 2012

Change the Weather History Date:

Wednesday, December 5, 2012

  Actual Average (KMKG) Record (KMKG)
Temperature  
Mean Temperature 32 °F -  
Max Temperature 36 °F 38 °F 63 °F (2001)
Min Temperature 28 °F 27 °F 10 °F (1926)
Degree Days  
Heating Degree Days 33    
Moisture  
Dew Point 19 °F    
Average Humidity 61    
Maximum Humidity 73    
Minimum Humidity 51    
Precipitation  
Precipitation 0.00 in - - ()
Sea Level Pressure  
Sea Level Pressure 30.33 in    
Wind  
Wind Speed 9 mph (North)    
Max Wind Speed 16 mph    
Max Gust Speed 22 mph    
Visibility 10 miles    
Events      
Averages and records for this station are not official NWS values.
T = Trace of Precipitation, MM = Missing Value Source: NWS Daily Summary

Daily Weather History Graph

Daily Weather History Graph

Search for Another Location

Airport or City:

Trip Planner

Search our weather history database for the weather conditions in past years. The results will help you decide how hot, cold, wet, or windy it might be!

Date:

Astronomy

Dec. 05, 2012 Rise Set
Actual Time 8:01 AM EST 5:07 PM EST
Civil Twilight 7:29 AM EST 5:40 PM EST
Nautical Twilight 6:53 AM EST 6:16 PM EST
Astronomical Twilight 6:18 AM EST 6:50 PM EST
Moon No Moon Rise 12:16 PM EST (12/5)
Length of Visible Light 10h 10m
Length of Day
9h 06m
Waning Gibbous, 60% of the Moon is Illuminated
Dec 5
Waning Gibbous
Dec 6
Last Quarter
Dec 13
New
Dec 20
First Quarter
Dec 28
Full

Hourly Weather History & Observations

Time (EST) Temp. Windchill Dew Point Humidity Pressure Visibility Wind Dir Wind Speed Gust Speed Precip Events Conditions
12:15 AM 31.6 °F 22.1 °F 18.5 °F 58% 30.20 in 10.0 mi WNW 12.7 mph 18.4 mph N/A   Clear
12:34 AM 31.3 °F 22.7 °F 18.3 °F 59% 30.21 in 10.0 mi NW 10.4 mph - N/A   Clear
12:54 AM 30.9 °F 22.2 °F 18.3 °F 60% 30.22 in 10.0 mi NW 10.4 mph - N/A   Clear
1:14 AM 30.9 °F 22.8 °F 20.1 °F 64% 30.22 in 10.0 mi NW 9.2 mph - N/A   Scattered Clouds
1:34 AM 30.7 °F 20.9 °F 19.4 °F 63% 30.23 in 10.0 mi NW 12.7 mph 16.1 mph N/A   Overcast
1:55 AM 31.1 °F 20.9 °F 18.7 °F 60% 30.24 in 10.0 mi NW 13.8 mph 20.7 mph N/A   Overcast
2:14 AM 30.2 °F 19.8 °F 18.5 °F 62% 30.25 in 10.0 mi NW 13.8 mph 18.4 mph N/A   Overcast
2:55 AM 29.8 °F 22.2 °F 18.5 °F 63% 30.28 in 10.0 mi NW 8.1 mph - N/A   Mostly Cloudy
3:14 AM 30.0 °F 18.7 °F 18.9 °F 63% 30.28 in 10.0 mi NW 16.1 mph 21.9 mph N/A   Overcast
3:34 AM 29.8 °F 19.3 °F 17.8 °F 61% 30.30 in 10.0 mi NNW 13.8 mph 20.7 mph N/A   Overcast
3:54 AM 29.7 °F 20.1 °F 17.6 °F 61% 30.31 in 10.0 mi NNW 11.5 mph - N/A   Overcast
4:14 AM 29.7 °F 18.6 °F 17.8 °F 61% 30.31 in 10.0 mi NW 15.0 mph 19.6 mph N/A   Overcast
4:34 AM 29.7 °F 18.6 °F 17.2 °F 60% 30.31 in 10.0 mi NW 15.0 mph 19.6 mph N/A   Overcast
4:54 AM 29.7 °F 22.0 °F 18.3 °F 63% 30.32 in 10.0 mi WNW 8.1 mph - N/A   Overcast
5:15 AM 29.7 °F 19.6 °F 17.6 °F 61% 30.33 in 10.0 mi NNW 12.7 mph - N/A   Overcast
5:34 AM 29.8 °F 20.3 °F 17.8 °F 61% 30.33 in 10.0 mi NW 11.5 mph - N/A   Overcast
5:54 AM 29.8 °F 20.3 °F 17.8 °F 61% 30.35 in 10.0 mi NW 11.5 mph 16.1 mph N/A   Overcast
6:14 AM 29.8 °F 18.9 °F 17.4 °F 60% 30.35 in 10.0 mi NNW 15.0 mph - N/A   Overcast
6:34 AM 29.8 °F 21.5 °F 17.4 °F 60% 30.35 in 10.0 mi NW 9.2 mph - N/A   Overcast
6:55 AM 29.8 °F 22.2 °F 17.8 °F 61% 30.36 in 10.0 mi WNW 8.1 mph - N/A   Overcast
7:14 AM 30.0 °F 23.2 °F 18.1 °F 61% 30.37 in 10.0 mi NW 6.9 mph - N/A   Overcast
7:34 AM 30.2 °F 21.3 °F 18.3 °F 61% 30.37 in 10.0 mi NW 10.4 mph - N/A   Overcast
7:54 AM 30.2 °F 21.9 °F 17.8 °F 60% 30.37 in 10.0 mi NNW 9.2 mph - N/A   Overcast
9:34 AM 31.6 °F 26.0 °F 19.6 °F 61% 30.41 in 10.0 mi NW 5.8 mph - N/A   Overcast
9:54 AM 32.0 °F 23.6 °F 19.9 °F 61% 30.41 in 10.0 mi NNW 10.4 mph - N/A   Overcast
10:15 AM 32.0 °F 25.6 °F 18.9 °F 58% 30.41 in 10.0 mi NNW 6.9 mph - N/A   Overcast
10:34 AM 32.0 °F 25.6 °F 18.9 °F 58% 30.41 in 10.0 mi North 6.9 mph - N/A   Overcast
10:55 AM 32.7 °F 25.0 °F 19.0 °F 57% 30.41 in 10.0 mi NNW 9.2 mph - N/A   Overcast
11:14 AM 32.7 °F 26.4 °F 18.5 °F 56% 30.40 in 10.0 mi North 6.9 mph - N/A   Overcast
11:34 AM 33.1 °F 27.7 °F 18.7 °F 56% 30.40 in 10.0 mi North 5.8 mph - N/A   Scattered Clouds
11:55 AM 33.6 °F 28.4 °F 19.0 °F 55% 30.39 in 10.0 mi NE 5.8 mph - N/A   Clear
12:14 PM 34.2 °F 28.2 °F 19.0 °F 54% 30.39 in 10.0 mi NNW 6.9 mph - N/A   Clear
12:34 PM 34.2 °F 29.0 °F 19.0 °F 54% 30.39 in 10.0 mi North 5.8 mph - N/A   Clear
12:55 PM 34.7 °F 31.8 °F 19.0 °F 53% 30.38 in 10.0 mi NW 3.5 mph - N/A   Clear
1:14 PM 35.1 °F 29.3 °F 18.7 °F 51% 30.38 in 10.0 mi NNW 6.9 mph - N/A   Clear
1:35 PM 34.9 °F - 19.0 °F 52% 30.38 in 10.0 mi Calm Calm - N/A   Clear
1:54 PM 35.4 °F 31.5 °F 19.2 °F 52% 30.38 in 10.0 mi WSW 4.6 mph - N/A   Scattered Clouds
2:14 PM 35.1 °F - 19.4 °F 53% 30.38 in 10.0 mi Calm Calm - N/A   Scattered Clouds
2:35 PM 35.1 °F - 18.9 °F 52% 30.37 in 10.0 mi Calm Calm - N/A   Clear
2:54 PM 36.3 °F 32.5 °F 19.6 °F 51% 30.37 in 10.0 mi East 4.6 mph - N/A   Clear
3:14 PM 36.0 °F 33.3 °F 19.2 °F 51% 30.35 in 10.0 mi East 3.5 mph - N/A   Clear
3:34 PM 35.4 °F - 19.0 °F 51% 30.35 in 10.0 mi Calm Calm - N/A   Clear
3:54 PM 35.6 °F 30.7 °F 19.9 °F 53% 30.34 in 10.0 mi NE 5.8 mph - N/A   Clear
4:15 PM 35.6 °F 32.8 °F 18.9 °F 51% 30.35 in 10.0 mi NE 3.5 mph - N/A   Clear
4:34 PM 34.7 °F 30.6 °F 19.2 °F 53% 30.34 in 10.0 mi ESE 4.6 mph - N/A   Clear
4:55 PM 33.8 °F - 19.2 °F 55% 30.34 in 10.0 mi Calm Calm - N/A   Clear
5:14 PM 32.4 °F - 19.4 °F 59% 30.34 in 10.0 mi Calm Calm - N/A   Clear
5:34 PM 32.7 °F - 19.0 °F 57% 30.34 in 10.0 mi Calm Calm - N/A   Clear
5:55 PM 31.1 °F 27.7 °F 19.4 °F 62% 30.35 in 10.0 mi SE 3.5 mph - N/A   Clear
6:14 PM 31.1 °F 27.7 °F 19.8 °F 63% 30.34 in 10.0 mi ESE 3.5 mph - N/A   Clear
6:34 PM 31.5 °F 28.1 °F 19.6 °F 62% 30.34 in 10.0 mi SE 3.5 mph - N/A   Clear
6:54 PM 30.0 °F - 20.3 °F 67% 30.34 in 10.0 mi Calm Calm - N/A   Clear
7:15 PM 29.3 °F - 19.9 °F 68% 30.34 in 10.0 mi Calm Calm - N/A   Clear
7:32 PM 29.7 °F - 19.9 °F 67% 30.34 in 10.0 mi Calm Calm - N/A   Clear
7:54 PM 29.7 °F 26.1 °F 20.1 °F 68% 30.34 in 10.0 mi East 3.5 mph - N/A   Clear
8:14 PM 29.1 °F 24.1 °F 20.3 °F 70% 30.33 in 10.0 mi East 4.6 mph - N/A   Clear
8:35 PM 29.3 °F 25.6 °F 20.1 °F 69% 30.34 in 10.0 mi ESE 3.5 mph - N/A   Clear
8:54 PM 28.8 °F 23.7 °F 20.1 °F 70% 30.34 in 10.0 mi ESE 4.6 mph - N/A   Clear
9:15 PM 28.4 °F 23.3 °F 20.1 °F 71% 30.33 in 10.0 mi ESE 4.6 mph - N/A   Clear
9:34 PM 28.6 °F 23.5 °F 20.8 °F 73% 30.32 in 10.0 mi East 4.6 mph - N/A   Clear
9:54 PM 28.9 °F 22.8 °F 21.2 °F 73% 30.30 in 10.0 mi ESE 5.8 mph - N/A   Clear
10:14 PM 29.1 °F 22.1 °F 21.2 °F 72% 30.30 in 10.0 mi ESE 6.9 mph - N/A   Clear
10:35 PM 29.3 °F 22.3 °F 21.4 °F 72% 30.29 in 10.0 mi ESE 6.9 mph - N/A   Clear
10:54 PM 28.9 °F 23.9 °F 21.2 °F 73% 30.29 in 10.0 mi ESE 4.6 mph - N/A   Clear
11:14 PM 28.8 °F 23.7 °F 21.2 °F 73% 30.29 in 10.0 mi ESE 4.6 mph - N/A   Clear
11:35 PM 28.8 °F 20.9 °F 21.0 °F 73% 30.28 in 10.0 mi ESE 8.1 mph - N/A   Clear
11:54 PM 29.1 °F 22.1 °F 21.2 °F 72% 30.27 in 10.0 mi ESE 6.9 mph - N/A   Clear